"Timestamp","TZ","WindDir_Mean (deg)","WindSpd_Mean (km/h)","WindSpd_Min (km/h)","WindSpd_Max (km/h)","Temp_Mean (deg)","RH_Mean (%)","MSLP_Mean (hPa)","Rain_Acc (mm)","Rain_Intensity (mm/h)","Hail_Acc (hits/cm2)","Hail_Intensity (hits/cm2hr)","Solar_Mean (W/m2)"
2020/04/06 00:00:00.001,n,169,1.8,1.44,2.52,19.8,75.9,1016.72,0,0,0,0,0.036583
2020/04/06 00:01:00.000,n,181,4.68,4.32,5.04,19.8,75.9,1016.72,0,0,0,0,0.031357
2020/04/06 00:02:00.000,n,170,3.24,2.52,3.96,19.7,76,1016.72,0,0,0,0,0.033951
2020/04/06 00:03:00.000,n,160,3.24,2.88,3.6,19.7,76,1016.72,0,0,0,0,0.033951
2020/04/06 00:04:00.000,n,145,2.16,0.72,3.6,19.7,76,1016.72,0,0,0,0,0.032234
2020/04/06 00:05:00.006,n,169,5.04,4.68,5.4,19.7,75.9,1016.72,0,0,0,0,0.033951
2020/04/06 00:06:00.003,n,174,3.96,3.6,4.32,19.6,76,1016.72,0,0,0,0,0.024376
2020/04/06 00:07:00.000,n,161,2.16,1.08,2.88,19.6,76,1016.72,0,0,0,0,0.033951
2020/04/06 00:08:00.014,n,149,2.16,1.08,2.88,19.6,76,1016.72,0,0,0,0,0.030479
2020/04/06 00:09:00.011,n,149,1.8,0.72,3.24,19.6,75.9,1016.72,0,0,0,0,0.031357
2020/04/06 00:10:00.000,n,136,1.08,0.72,1.44,19.6,75.7,1016.72,0,0,0,0,0.027885
2020/04/06 00:11:00.000,n,217,1.44,1.08,2.16,19.6,75.7,1016.72,0,0,0,0,0.030479
2020/04/06 00:12:00.003,n,97,1.08,0.36,1.8,19.6,75.6,1016.72,0,0,0,0,0.025291
2020/04/06 00:13:00.002,n,192,0.72,0.72,1.08,19.6,75.7,1016.72,0,0,0,0,0.027008
2020/04/06 00:14:00.000,n,234,1.08,0.72,2.16,19.6,75.5,1016.72,0,0,0,0,0.024376
2020/04/06 00:15:00.000,n,297,0.72,0.36,1.08,19.6,75.4,1016.72,0,0,0,0,0.028725
2020/04/06 00:16:00.009,n,135,1.08,0.36,2.16,19.6,75.5,1016.72,0,0,0,0,0.026131
2020/04/06 00:17:00.007,n,265,1.8,1.08,3.24,19.6,75.2,1016.72,0,0,0,0,0.027885
2020/04/06 00:18:00.004,n,198,1.44,0,1.8,19.5,75.2,1016.72,0,0,0,0,0.027008
2020/04/06 00:19:00.002,n,239,1.8,1.08,2.16,19.5,74.8,1016.72,0,0,0,0,0.027008
2020/04/06 00:20:00.000,n,96,2.88,2.16,3.24,19.5,74.9,1016.72,0,0,0,0,0.023499
2020/04/06 00:21:00.000,n,220,1.44,0.72,2.16,19.5,74.9,1016.72,0,0,0,0,0.030479
2020/04/06 00:22:00.000,n,113,1.08,0.36,1.8,19.5,74.9,1016.72,0,0,0,0,0.027885
2020/04/06 00:23:00.006,n,209,0.36,0.36,0.36,19.5,75,1016.62,0,0,0,0,0.027885
2020/04/06 00:24:00.004,n,101,0.72,0.36,1.08,19.5,75,1016.62,0,0,0,0,0.020027
2020/04/06 00:25:00.001,n,132,2.52,1.8,2.88,19.5,75,1016.62,0,0,0,0,0.030441
2020/04/06 00:26:00.011,n,235,1.08,0.36,1.44,19.5,75,1016.62,0,0,0,0,0.032196
2020/04/06 00:27:00.009,n,70,1.44,0.36,1.8,19.5,75.1,1016.62,0,0,0,0,0.033035
2020/04/06 00:28:00.000,n,147,0.72,0.36,1.44,19.5,75.2,1016.62,0,0,0,0,0.028687
2020/04/06 00:29:00.002,n,104,2.52,0.72,4.68,19.5,75.1,1016.62,0,0,0,0,0.028687
2020/04/06 00:30:00.000,n,172,1.8,1.44,2.52,19.5,74.9,1016.62,0,0,0,0,0.025215
2020/04/06 00:31:00.000,n,169,0.72,0.72,1.44,19.6,75,1016.62,0,0,0,0,0.031319
2020/04/06 00:32:00.000,n,112,1.44,0.72,1.8,19.6,74.9,1016.62,0,0,0,0,0.028687
2020/04/06 00:33:00.007,n,210,1.44,0.36,2.52,19.6,74.7,1016.62,0,0,0,0,0.029602
2020/04/06 00:34:00.004,n,257,1.8,0.72,2.88,19.6,74.9,1016.62,0,0,0,0,0.029602
2020/04/06 00:35:00.002,n,296,3.24,2.52,3.96,19.6,75.6,1016.52,0,0,0,0,0.027809
2020/04/06 00:36:00.015,n,282,2.52,1.8,3.24,19.6,75.3,1016.52,0,0,0,0,0.031319
2020/04/06 00:37:00.000,n,257,2.88,2.52,3.24,19.6,74.9,1016.52,0,0,0,0,0.031319
2020/04/06 00:38:00.000,n,280,5.04,5.04,5.4,19.6,74.7,1016.52,0,0,0,0,0.027809
2020/04/06 00:39:00.000,n,269,5.04,5.04,5.76,19.5,74.9,1016.52,0,0,0,0,0.033035
2020/04/06 00:40:00.004,n,348,1.44,1.08,2.16,19.5,75.5,1016.52,0,0,0,0,0.029602
2020/04/06 00:41:00.002,n,272,2.52,1.08,3.24,19.5,75.8,1016.42,0,0,0,0,0.024376
2020/04/06 00:42:00.000,n,286,2.16,1.44,2.52,19.5,75.3,1016.42,0,0,0,0,0.02697
2020/04/06 00:43:00.012,n,278,2.16,1.44,2.88,19.5,75.3,1016.42,0,0,0,0,0.02346
2020/04/06 00:44:00.009,n,221,1.8,1.08,3.24,19.4,75.3,1016.52,0,0,0,0,0.027809
2020/04/06 00:45:00.006,n,240,1.08,0.72,1.44,19.4,75.7,1016.52,0,0,0,0,0.02697
2020/04/06 00:46:00.000,n,177,0.36,0.36,1.08,19.4,75.7,1016.52,0,0,0,0,0.025215
2020/04/06 00:47:00.000,n,255,1.8,1.44,2.16,19.4,75.6,1016.52,0,0,0,0,0.02346
2020/04/06 00:48:00.000,n,72,1.44,0.36,2.16,19.4,75.5,1016.52,0,0,0,0,0.024376
2020/04/06 00:49:00.000,n,204,2.52,2.52,2.88,19.4,75.5,1016.52,0,0,0,0,0.025215
2020/04/06 00:50:00.000,n,182,3.96,3.6,5.04,19.4,75.7,1016.52,0,0,0,0,0.025215
2020/04/06 00:51:00.005,n,159,5.4,4.68,5.76,19.4,75.8,1016.42,0,0,0,0,0.02697
2020/04/06 00:52:00.003,n,206,1.08,0.36,1.8,19.4,75.8,1016.52,0,0,0,0,0.024376
2020/04/06 00:53:00.000,n,174,1.8,1.08,2.88,19.4,76,1016.42,0,0,0,0,0.026093
2020/04/06 00:54:00.013,n,165,2.16,1.8,2.52,19.3,75.9,1016.42,0,0,0,0,0.02697
2020/04/06 00:55:00.000,n,169,4.68,4.32,5.04,19.3,76,1016.42,0,0,0,0,0.022621
2020/04/06 00:56:00.000,n,149,2.16,1.8,2.52,19.3,76.1,1016.42,0,0,0,0,0.025215
2020/04/06 00:57:00.004,n,127,2.16,1.44,3.24,19.3,76.2,1016.42,0,0,0,0,0.020866
2020/04/06 00:58:00.003,n,334,2.52,1.8,2.88,19.3,76.4,1016.42,0,0,0,0,0.021744
2020/04/06 00:59:00.000,n,340,2.88,2.16,3.24,19.3,76.6,1016.42,0,0,0,0,0.026093
2020/04/06 01:00:00.000,n,140,0.72,0.36,1.44,19.3,76.2,1016.32,0,0,0,0,0.01915
2020/04/06 01:01:00.009,n,192,2.16,0.72,3.6,19.3,76.2,1016.32,0,0,0,0,0.020027
2020/04/06 01:02:00.006,n,139,3.24,2.88,3.6,19.3,76.2,1016.32,0,0,0,0,0.026093
2020/04/06 01:03:00.004,n,122,3.6,3.24,4.32,19.3,76,1016.32,0,0,0,0,0.021744
2020/04/06 01:04:00.002,n,190,0.72,0.36,1.08,19.3,76.4,1016.32,0,0,0,0,0.021744
2020/04/06 01:05:00.000,n,254,0.36,0,0.72,19.3,76.5,1016.32,0,0,0,0,0.021744
2020/04/06 01:06:00.000,n,143,0.72,0.36,1.08,19.3,76.5,1016.32,0,0,0,0,0.028725
2020/04/06 01:07:00.000,n,288,4.32,3.24,5.04,19.3,76.5,1016.32,0,0,0,0,0.030441
2020/04/06 01:08:00.007,n,206,2.52,1.8,2.88,19.3,76.3,1016.32,0,0,0,0,0.030441
2020/04/06 01:09:00.005,n,267,2.88,2.16,3.6,19.3,76.2,1016.32,0,0,0,0,0.027847
2020/04/06 01:10:00.001,n,275,1.8,0.72,2.16,19.3,77.1,1016.32,0,0,0,0,0.028725
2020/04/06 01:11:00.000,n,290,1.8,1.08,2.52,19.3,76.9,1016.32,0,0,0,0,0.031319
2020/04/06 01:12:00.011,n,219,0.72,0.36,1.8,19.3,76.6,1016.32,0,0,0,0,0.03479
2020/04/06 01:13:00.000,n,244,1.44,1.44,2.16,19.3,76.5,1016.32,0,0,0,0,0.033951
2020/04/06 01:14:00.000,n,276,1.44,1.08,2.16,19.3,76.6,1016.32,0,0,0,0,0.030441
2020/04/06 01:15:00.002,n,189,1.8,1.8,2.52,19.3,76.6,1016.32,0,0,0,0,0.030441
2020/04/06 01:16:00.000,n,112,1.8,1.44,1.8,19.2,76.4,1016.32,0,0,0,0,0.027847
2020/04/06 01:17:00.000,n,134,1.8,0.72,2.88,19.2,76.3,1016.32,0,0,0,0,0.028725
2020/04/06 01:18:00.000,n,156,2.16,1.08,2.88,19.2,76.4,1016.32,0,0,0,0,0.032196
2020/04/06 01:19:00.009,n,108,2.16,1.8,2.52,19.2,76.5,1016.32,0,0,0,0,0.027847
2020/04/06 01:20:00.007,n,271,0.72,0.36,1.08,19.1,76.5,1016.32,0,0,0,0,0.029602
2020/04/06 01:21:00.003,n,161,0.72,0.36,1.08,19.1,76.7,1016.32,0,0,0,0,0.028725
2020/04/06 01:22:00.000,n,204,1.08,0.72,1.8,19.1,76.7,1016.32,0,0,0,0,0.02697
2020/04/06 01:23:00.000,n,174,1.08,0.72,1.8,19.1,77.6,1016.32,0,0,0,0,0.032196
2020/04/06 01:24:00.000,n,136,1.08,0.72,1.44,19.1,76.9,1016.32,0,0,0,0,0.030441
2020/04/06 01:25:00.000,n,206,1.08,0.72,2.16,19.1,76.9,1016.32,0,0,0,0,0.026093
2020/04/06 01:26:00.006,n,229,1.44,1.08,2.16,19.1,76.8,1016.32,0,0,0,0,0.027847
2020/04/06 01:27:00.002,n,178,1.08,0.36,1.44,19.1,77.2,1016.32,0,0,0,0,0.02697
2020/04/06 01:28:00.000,n,273,1.44,1.08,2.52,19.1,77.3,1016.32,0,0,0,0,0.027847
2020/04/06 01:29:00.000,n,182,1.08,0.36,1.44,19.1,76.9,1016.32,0,0,0,0,0.027847
2020/04/06 01:30:00.011,n,178,2.16,1.44,2.88,19.1,77,1016.32,0,0,0,0,0.02697
2020/04/06 01:31:00.000,n,107,0.72,0.72,0.72,19.1,76.4,1016.32,0,0,0,0,0.026093
2020/04/06 01:32:00.000,n,327,1.8,1.44,2.52,19.1,76.5,1016.32,0,0,0,0,0.025215
2020/04/06 01:33:00.003,n,272,1.08,0.72,1.44,19.1,76.9,1016.32,0,0,0,0,0.024376
2020/04/06 01:34:00.000,n,286,2.52,2.16,2.88,19.1,76.9,1016.32,0,0,0,0,0.025215
2020/04/06 01:35:00.000,n,259,2.52,1.8,3.24,19.1,76.8,1016.22,0,0,0,0,0.025215
2020/04/06 01:36:00.000,n,241,2.16,2.16,2.16,19.1,76.8,1016.22,0,0,0,0,0.020866
2020/04/06 01:37:00.009,n,292,1.08,0.72,1.08,19.1,76.9,1016.22,0,0,0,0,0.020027
2020/04/06 01:38:00.006,n,276,3.96,3.6,4.68,19.1,77.3,1016.22,0,0,0,0,0.023499
2020/04/06 01:39:00.003,n,150,0.72,0.36,1.08,19.1,77.5,1016.22,0,0,0,0,0.023499
2020/04/06 01:40:00.000,n,322,0.72,0.36,1.44,19.1,77.5,1016.22,0,0,0,0,0.024376
2020/04/06 01:41:00.000,n,283,1.44,1.08,1.8,19.1,77.2,1016.22,0,0,0,0,0.020866
2020/04/06 01:42:00.000,n,52,0.36,0,0.36,19.1,77.2,1016.22,0,0,0,0,0.022621
2020/04/06 01:43:00.000,n,315,1.08,0.36,1.44,19.1,77.2,1016.22,0,0,0,0,0.020866
2020/04/06 01:44:00.005,n,251,2.52,1.08,2.88,19.1,77.2,1016.22,0,0,0,0,0.022621
2020/04/06 01:45:00.003,n,308,1.44,1.08,2.16,19,77.4,1016.12,0,0,0,0,0.021744
2020/04/06 01:46:00.000,n,236,1.44,0.72,2.16,19,77.3,1016.22,0,0,0,0,0.021744
2020/04/06 01:47:00.012,n,267,3.24,2.88,3.6,19,77.3,1016.22,0,0,0,0,0.020027
2020/04/06 01:48:00.011,n,239,3.24,2.88,3.6,19,77.5,1016.12,0,0,0,0,0.025215
2020/04/06 01:49:00.000,n,189,1.8,1.44,2.52,18.9,77.5,1016.22,0,0,0,0,0.020027
2020/04/06 01:50:00.000,n,124,2.16,2.16,2.52,18.9,77.7,1016.22,0,0,0,0,0.016518
2020/04/06 01:51:00.003,n,95,1.44,0.72,2.52,18.9,78,1016.12,0,0,0,0,0.026093
2020/04/06 01:52:00.000,n,187,0.72,0.36,1.44,18.9,78,1016.12,0,0,0,0,0.021744
2020/04/06 01:53:00.000,n,273,2.16,1.8,2.16,18.9,77.9,1016.12,0,0,0,0,0.021744
2020/04/06 01:54:00.010,n,132,2.52,2.52,2.52,18.9,78,1016.12,0,0,0,0,0.020866
2020/04/06 01:55:00.008,n,132,2.16,1.44,2.88,18.9,78,1016.12,0,0,0,0,0.021744
2020/04/06 01:56:00.005,n,82,2.16,1.8,2.16,18.8,78.2,1016.12,0,0,0,0,0.021744
2020/04/06 01:57:00.002,n,232,0.72,0.36,1.08,18.8,78.1,1016.12,0,0,0,0,0.018272
2020/04/06 01:58:00.000,n,147,2.16,2.16,2.16,18.8,78.4,1016.12,0,0,0,0,0.020027
2020/04/06 01:59:00.000,n,229,1.44,0.72,2.52,18.9,78.6,1016.22,0,0,0,0,0.01915
2020/04/06 02:00:00.000,n,156,2.16,1.08,3.24,18.9,78.4,1016.22,0,0,0,0,0.01564
2020/04/06 02:01:00.007,n,249,1.44,0.36,2.88,18.9,78.3,1016.22,0,0,0,0,0.016518
2020/04/06 02:02:00.004,n,243,2.88,2.88,3.24,18.8,78.3,1016.22,0,0,0,0,0.020027
2020/04/06 02:03:00.001,n,217,1.08,0.36,1.8,18.8,78.5,1016.22,0,0,0,0,0.020866
2020/04/06 02:04:00.000,n,347,0.72,0.36,0.72,18.8,78.5,1016.22,0,0,0,0,0.014801
2020/04/06 02:05:00.011,n,258,3.24,2.16,3.6,18.8,78.5,1016.22,0,0,0,0,0.01564
2020/04/06 02:06:00.009,n,247,2.88,2.52,2.88,18.8,78.2,1016.22,0,0,0,0,0.014801
2020/04/06 02:07:00.000,n,223,1.44,1.08,1.8,18.8,78.2,1016.22,0,0,0,0,0.02697
2020/04/06 02:08:00.001,n,261,0.72,0.36,0.72,18.8,78.5,1016.22,0,0,0,0,0.031357
2020/04/06 02:09:00.000,n,182,0.36,0.36,0.72,18.8,78.5,1016.22,0,0,0,0,0.032196
2020/04/06 02:10:00.000,n,72,0.72,0.36,1.44,18.8,78.7,1016.22,0,0,0,0,0.036545
2020/04/06 02:11:00.000,n,293,0.36,0.36,0.72,18.8,78.6,1016.12,0,0,0,0,0.032196
2020/04/06 02:12:00.009,n,175,3.24,2.52,3.6,18.8,78.4,1016.12,0,0,0,0,0.032196
2020/04/06 02:13:00.006,n,147,2.16,1.8,2.52,18.7,78.4,1016.12,0,0,0,0,0.036545
2020/04/06 02:14:00.004,n,110,1.08,0.72,1.8,18.7,78.4,1016.12,0,0,0,0,0.032196
2020/04/06 02:15:00.000,n,149,3.24,1.44,3.96,18.7,78.5,1016.12,0,0,0,0,0.033073
2020/04/06 02:16:00.000,n,185,1.44,1.08,2.16,18.7,78.3,1016.12,0,0,0,0,0.028763
2020/04/06 02:17:00.000,n,166,5.4,3.6,6.48,18.7,78.3,1016.12,0,0,0,0,0.032196
2020/04/06 02:18:00.000,n,162,6.12,5.04,6.48,18.7,78.1,1016.12,0,0,0,0,0.031357
2020/04/06 02:19:00.005,n,193,4.32,2.88,5.04,18.6,78.3,1016.12,0,0,0,0,0.033073
2020/04/06 02:20:00.003,n,187,2.16,1.8,2.52,18.6,78.2,1016.12,0,0,0,0,0.027847
2020/04/06 02:21:00.001,n,157,5.76,4.68,6.48,18.6,78.2,1016.12,0,0,0,0,0.031357
2020/04/06 02:22:00.000,n,180,2.88,1.8,3.96,18.6,78.3,1016.12,0,0,0,0,0.032196
2020/04/06 02:23:00.012,n,128,1.08,0.72,2.16,18.6,78.3,1016.12,0,0,0,0,0.029602
2020/04/06 02:24:00.009,n,168,6.84,6.12,7.2,18.6,78.1,1016.12,0,0,0,0,0.030479
2020/04/06 02:25:00.000,n,186,5.04,4.68,5.4,18.6,78.2,1016.12,0,0,0,0,0.028763
2020/04/06 02:26:00.002,n,176,5.4,5.04,5.76,18.6,78,1016.12,0,0,0,0,0.028763
2020/04/06 02:27:00.000,n,180,2.16,0.36,3.96,18.6,78.1,1016.12,0,0,0,0,0.030479
2020/04/06 02:28:00.000,n,148,6.12,5.04,7.2,18.6,77.8,1016.12,0,0,0,0,0.027847
2020/04/06 02:29:00.000,n,171,3.24,2.16,3.6,18.6,78,1016.12,0,0,0,0,0.028763
2020/04/06 02:30:00.007,n,99,1.08,0.72,1.44,18.6,78.1,1016.12,0,0,0,0,0.02697
2020/04/06 02:31:00.004,n,145,3.6,2.16,4.32,18.6,78.1,1016.12,0,0,0,0,0.027847
2020/04/06 02:32:00.001,n,158,1.08,0.72,1.8,18.6,77.8,1016.12,0,0,0,0,0.025253
2020/04/06 02:33:00.000,n,188,4.32,3.6,5.04,18.6,77.9,1016.12,0,0,0,0,0.029602
2020/04/06 02:34:00.000,n,125,1.8,0.72,2.52,18.6,77.9,1016.12,0,0,0,0,0.025253
2020/04/06 02:35:00.000,n,224,2.52,1.8,3.6,18.6,77.9,1016.12,0,0,0,0,0.023499
2020/04/06 02:36:00.000,n,92,3.6,2.16,4.68,18.6,77.9,1016.12,0,0,0,0,0.028763
2020/04/06 02:37:00.007,n,207,1.44,0.72,2.52,18.6,77.7,1016.12,0,0,0,0,0.024376
2020/04/06 02:38:00.004,n,185,1.44,0.72,1.8,18.6,77.7,1016.12,0,0,0,0,0.027847
2020/04/06 02:39:00.002,n,165,1.44,0.72,1.8,18.6,77.7,1016.12,0,0,0,0,0.027847
2020/04/06 02:40:00.000,n,146,2.88,2.16,3.6,18.6,77.6,1016.12,0,0,0,0,0.02697
2020/04/06 02:41:00.013,n,307,0.72,0.36,1.8,18.6,77.7,1016.12,0,0,0,0,0.025253
2020/04/06 02:42:00.010,n,266,1.08,0.72,1.44,18.6,77.8,1016.12,0,0,0,0,0.029602
2020/04/06 02:43:00.000,n,142,0.36,0,0.72,18.6,77.8,1016.12,0,0,0,0,0.02697
2020/04/06 02:44:00.000,n,269,1.08,0.72,2.16,18.6,77.8,1016.12,0,0,0,0,0.029602
2020/04/06 02:45:00.003,n,124,0.36,0.36,1.08,18.6,77.8,1016.12,0,0,0,0,0.029602
2020/04/06 02:46:00.001,n,193,1.08,0.36,1.8,18.7,77.6,1016.12,0,0,0,0,0.030479
2020/04/06 02:47:00.000,n,112,3.24,2.52,3.6,18.7,77.4,1016.12,0,0,0,0,0.027847
2020/04/06 02:48:00.000,n,242,1.08,0.36,1.44,18.7,77.3,1016.02,0,0,0,0,0.029602
2020/04/06 02:49:00.008,n,120,2.16,2.16,2.52,18.7,77.1,1016.02,0,0,0,0,0.025253
2020/04/06 02:50:00.005,n,321,2.52,1.8,3.24,18.7,77.2,1016.02,0,0,0,0,0.028763
2020/04/06 02:51:00.003,n,144,0.72,0.36,0.72,18.7,77.2,1016.02,0,0,0,0,0.026131
2020/04/06 02:52:00.000,n,115,1.8,1.44,2.88,18.7,77,1016.02,0,0,0,0,0.026131
2020/04/06 02:53:00.000,n,134,2.88,2.16,2.88,18.6,76.7,1016.12,0,0,0,0,0.023499
2020/04/06 02:54:00.000,n,202,1.44,0.72,2.16,18.6,76.8,1016.12,0,0,0,0,0.026131
2020/04/06 02:55:00.000,n,300,2.16,1.44,3.24,18.6,77.1,1016.12,0,0,0,0,0.02697
2020/04/06 02:56:00.006,n,168,2.52,1.8,2.88,18.6,77.1,1016.12,0,0,0,0,0.025253
2020/04/06 02:57:00.003,n,71,1.08,0.72,1.44,18.6,77.2,1016.12,0,0,0,0,0.031357
2020/04/06 02:58:00.000,n,356,1.8,0.72,2.52,18.6,77.3,1016.12,0,0,0,0,0.024376
2020/04/06 02:59:00.000,n,357,2.52,1.8,3.24,18.7,77.3,1016.12,0,0,0,0,0.025253
2020/04/06 03:00:00.012,n,206,1.08,1.08,1.44,18.7,77,1016.12,0,0,0,0,0.027847
2020/04/06 03:01:00.000,n,143,1.8,1.44,2.16,18.7,76.7,1016.12,0,0,0,0,0.02697
2020/04/06 03:02:00.000,n,191,1.44,0.72,2.16,18.6,76.8,1016.12,0,0,0,0,0.025253
2020/04/06 03:03:00.003,n,114,1.08,0.36,1.8,18.6,76.6,1016.12,0,0,0,0,0.030479
2020/04/06 03:04:00.001,n,126,1.08,0.36,1.8,18.6,76.7,1016.12,0,0,0,0,0.023499
2020/04/06 03:05:00.000,n,165,2.52,1.44,3.96,18.6,76.7,1016.12,0,0,0,0,0.028763
2020/04/06 03:06:00.000,n,25,0.72,0.36,1.08,18.6,76.9,1016.12,0,0,0,0,0.027847
2020/04/06 03:07:00.011,n,189,1.44,1.08,2.16,18.6,76.9,1016.12,0,0,0,0,0.02697
2020/04/06 03:08:00.009,n,187,0.72,0,1.44,18.6,76.9,1016.12,0,0,0,0,0.025253
2020/04/06 03:09:00.006,n,237,1.08,0.36,2.16,18.6,76.8,1016.12,0,0,0,0,0.026131
2020/04/06 03:10:00.000,n,139,2.52,1.44,3.24,18.6,76.8,1016.12,0,0,0,0,0.025253
2020/04/06 03:11:00.000,n,253,2.16,1.08,2.88,18.6,76.9,1016.12,0,0,0,0,0.026131
2020/04/06 03:12:00.000,n,95,1.8,0.72,3.24,18.6,77.2,1016.12,0,0,0,0,0.026131
2020/04/06 03:13:00.000,n,162,2.88,2.52,2.88,18.6,76.8,1016.12,0,0,0,0,0.02697
2020/04/06 03:14:00.008,n,161,0.36,0.36,0.72,18.6,76.7,1016.12,0,0,0,0,0.021782
2020/04/06 03:15:00.005,n,243,2.16,1.44,2.88,18.6,76.6,1016.12,0,0,0,0,0.021782
2020/04/06 03:16:00.004,n,178,2.16,1.08,2.88,18.6,76.7,1016.12,0,0,0,0,0.022621
2020/04/06 03:17:00.001,n,140,5.76,4.68,6.84,18.5,76.7,1016.02,0,0,0,0,0.020905
2020/04/06 03:18:00.015,n,176,1.08,0.36,1.8,18.5,76.7,1016.02,0,0,0,0,0.028725
2020/04/06 03:19:00.000,n,162,7.2,6.12,8.28,18.5,76.7,1016.02,0,0,0,0,0.031319
2020/04/06 03:20:00.000,n,137,1.44,0.72,1.8,18.5,76.8,1016.02,0,0,0,0,0.030441
2020/04/06 03:21:00.000,n,172,1.8,1.8,2.52,18.5,76.9,1016.02,0,0,0,0,0.031319
2020/04/06 03:22:00.006,n,332,0.72,0.36,1.08,18.5,77,1016.02,0,0,0,0,0.033073
2020/04/06 03:23:00.004,n,138,2.16,1.44,3.6,18.5,76.9,1016.02,0,0,0,0,0.031319
2020/04/06 03:24:00.001,n,155,3.6,2.88,4.32,18.5,77,1016.02,0,0,0,0,0.032196
2020/04/06 03:25:00.000,n,135,1.8,1.08,2.52,18.5,77.1,1016.02,0,0,0,0,0.031319
2020/04/06 03:26:00.012,n,169,4.68,3.96,5.04,18.5,77.3,1016.02,0,0,0,0,0.031319
2020/04/06 03:27:00.010,n,166,4.68,3.6,5.04,18.4,77.3,1016.02,0,0,0,0,0.029602
2020/04/06 03:28:00.000,n,180,6.48,5.4,7.2,18.4,77.4,1016.02,0,0,0,0,0.031319
2020/04/06 03:29:00.000,n,158,5.4,5.04,5.76,18.4,77.5,1016.02,0,0,0,0,0.033073
2020/04/06 03:30:00.001,n,194,2.52,1.44,3.96,18.4,77.6,1016.02,0,0,0,0,0.030441
2020/04/06 03:31:00.000,n,178,5.04,4.32,6.48,18.4,77.6,1016.02,0,0,0,0,0.028725
2020/04/06 03:32:00.000,n,161,3.24,2.52,3.96,18.3,77.7,1016.02,0,0,0,0,0.02697
2020/04/06 03:33:00.009,n,154,5.76,5.04,6.48,18.3,77.6,1016.02,0,0,0,0,0.030441
2020/04/06 03:34:00.007,n,213,6.12,5.04,6.48,18.3,77.7,1016.02,0,0,0,0,0.030441
2020/04/06 03:35:00.005,n,175,3.24,2.16,5.76,18.3,77.7,1016.02,0,0,0,0,0.027847
2020/04/06 03:36:00.003,n,157,6.84,6.12,8.64,18.3,77.7,1016.02,0,0,0,0,0.031319
2020/04/06 03:37:00.001,n,177,3.96,3.24,5.04,18.3,77.8,1016.02,0,0,0,0,0.030441
2020/04/06 03:38:00.000,n,184,5.76,4.68,6.84,18.2,77.7,1016.02,0,0,0,0,0.030441
2020/04/06 03:39:00.000,n,170,2.52,2.16,3.24,18.2,77.8,1016.02,0,0,0,0,0.034828
2020/04/06 03:40:00.000,n,178,5.04,3.96,5.4,18.2,77.9,1016.02,0,0,0,0,0.025253
2020/04/06 03:41:00.006,n,136,3.6,3.24,4.32,18.2,77.9,1016.12,0,0,0,0,0.027847
2020/04/06 03:42:00.004,n,185,3.96,3.24,4.32,18.2,78,1016.12,0,0,0,0,0.024376
2020/04/06 03:43:00.002,n,157,0.72,0.36,1.8,18.2,78,1016.12,0,0,0,0,0.02697
2020/04/06 03:44:00.000,n,235,1.44,1.08,1.8,18.2,78,1016.12,0,0,0,0,0.028725
2020/04/06 03:45:00.014,n,178,1.08,0.72,2.16,18.3,78.6,1016.12,0,0,0,0,0.023499
2020/04/06 03:46:00.000,n,251,1.08,1.08,1.44,18.3,78.3,1016.12,0,0,0,0,0.026093
2020/04/06 03:47:00.000,n,245,0.72,0.72,1.08,18.3,78,1016.12,0,0,0,0,0.026093
2020/04/06 03:48:00.000,n,163,1.44,1.08,1.44,18.3,77.7,1016.12,0,0,0,0,0.029602
2020/04/06 03:49:00.003,n,109,1.44,0.72,2.16,18.3,77.8,1016.22,0,0,0,0,0.026093
2020/04/06 03:50:00.001,n,217,2.88,2.52,3.6,18.3,77.8,1016.22,0,0,0,0,0.023499
2020/04/06 03:51:00.000,n,185,2.16,0.36,3.96,18.3,77.7,1016.22,0,0,0,0,0.02697
2020/04/06 03:52:00.012,n,180,0.72,0.36,1.08,18.3,77.7,1016.22,0,0,0,0,0.021744
2020/04/06 03:53:00.009,n,183,0.36,0.36,0.72,18.2,77.9,1016.22,0,0,0,0,0.024376
2020/04/06 03:54:00.008,n,193,5.04,4.32,5.4,18.2,77.7,1016.22,0,0,0,0,0.024376
2020/04/06 03:55:00.000,n,249,2.88,2.52,2.88,18.2,77.8,1016.22,0,0,0,0,0.020027
2020/04/06 03:56:00.002,n,161,1.44,1.44,2.16,18.2,78,1016.22,0,0,0,0,0.023499
2020/04/06 03:57:00.000,n,190,2.88,1.8,3.96,18.2,78,1016.22,0,0,0,0,0.023499
2020/04/06 03:58:00.000,n,144,3.6,1.8,4.68,18.2,78.3,1016.22,0,0,0,0,0.022621
2020/04/06 03:59:00.000,n,117,1.8,0.72,2.16,18.2,78.1,1016.22,0,0,0,0,0.024376
2020/04/06 04:00:00.007,n,212,1.8,1.44,1.8,18.2,78.4,1016.22,0,0,0,0,0.033951
2020/04/06 04:01:00.005,n,168,0.72,0.36,1.44,18.2,78,1016.22,0,0,0,0,0.033073
2020/04/06 04:02:00.003,n,136,2.16,2.16,2.52,18.2,77.9,1016.22,0,0,0,0,0.032196
2020/04/06 04:03:00.001,n,182,3.6,1.8,4.68,18.2,77.9,1016.32,0,0,0,0,0.031357
2020/04/06 04:04:00.000,n,166,3.96,2.52,4.32,18.2,77.9,1016.32,0,0,0,0,0.033073
2020/04/06 04:05:00.000,n,158,5.4,3.6,6.84,18.1,78,1016.32,0,0,0,0,0.036583
2020/04/06 04:06:00.000,n,179,7.92,6.48,9,18.1,78,1016.32,0,0,0,0,0.034828
2020/04/06 04:07:00.006,n,223,5.4,5.04,6.12,18.1,78.2,1016.32,0,0,0,0,0.037422
2020/04/06 04:08:00.004,n,175,6.12,4.68,7.2,18.1,78.1,1016.32,0,0,0,0,0.033073
2020/04/06 04:09:00.000,n,198,4.32,3.96,4.68,18.1,78.1,1016.32,0,0,0,0,0.030479
2020/04/06 04:10:00.000,n,164,4.32,3.96,5.04,18.1,78.2,1016.32,0,0,0,0,0.030479
2020/04/06 04:11:00.011,n,122,0.72,0.36,0.72,18.1,78.2,1016.32,0,0,0,0,0.027847
2020/04/06 04:12:00.008,n,215,3.96,3.6,4.68,18.1,78.4,1016.32,0,0,0,0,0.031357
2020/04/06 04:13:00.000,n,190,6.12,5.76,6.84,18.1,78.3,1016.32,0,0,0,0,0.030479
2020/04/06 04:14:00.002,n,140,1.44,0.36,3.24,18.1,78.2,1016.32,0,0,0,0,0.029602
2020/04/06 04:15:00.000,n,330,0.72,0.36,0.72,18.1,78.4,1016.32,0,0,0,0,0.034828
2020/04/06 04:16:00.000,n,221,1.08,1.08,1.44,18.1,78.4,1016.32,0,0,0,0,0.032196
2020/04/06 04:17:00.000,n,131,2.52,1.44,3.24,18.1,78.4,1016.32,0,0,0,0,0.032196
2020/04/06 04:18:00.006,n,112,0.72,0.36,1.08,18.1,78.4,1016.32,0,0,0,0,0.033073
2020/04/06 04:19:00.003,n,180,1.44,0.72,1.8,18,78.5,1016.32,0,0,0,0,0.029602
2020/04/06 04:20:00.000,n,116,1.44,0.36,2.52,18,78.7,1016.32,0,0,0,0,0.031357
2020/04/06 04:21:00.014,n,312,1.44,1.08,1.44,18.1,78.6,1016.32,0,0,0,0,0.032196
2020/04/06 04:22:00.000,n,110,1.44,0.36,2.88,18.1,78.4,1016.32,0,0,0,0,0.033951
2020/04/06 04:23:00.000,n,183,0.72,0.36,1.44,18,78.3,1016.32,0,0,0,0,0.029602
2020/04/06 04:24:00.000,n,193,0.72,0.36,0.72,18,78.5,1016.42,0,0,0,0,0.027008
2020/04/06 04:25:00.004,n,166,3.96,3.24,4.68,18,78.3,1016.42,0,0,0,0,0.029602
2020/04/06 04:26:00.001,n,266,2.88,2.16,3.6,18,78.3,1016.42,0,0,0,0,0.027847
2020/04/06 04:27:00.000,n,291,3.96,3.24,4.68,18,78.6,1016.42,0,0,0,0,0.027008
2020/04/06 04:28:00.011,n,275,3.24,2.52,3.96,18,78.5,1016.42,0,0,0,0,0.030479
2020/04/06 04:29:00.008,n,256,5.76,5.04,6.12,18,78.3,1016.42,0,0,0,0,0.031357
2020/04/06 04:30:00.005,n,133,6.12,5.04,7.56,18,78.1,1016.42,0,0,0,0,0.025253
2020/04/06 04:31:00.001,n,145,3.96,3.6,4.68,18,78.2,1016.42,0,0,0,0,0.027008
2020/04/06 04:32:00.000,n,249,4.68,4.32,5.04,17.9,78,1016.42,0,0,0,0,0.027847
2020/04/06 04:33:00.000,n,188,0.72,0.72,1.08,17.9,78.1,1016.42,0,0,0,0,0.026131
2020/04/06 04:34:00.000,n,284,1.44,1.44,1.8,17.9,78.2,1016.42,0,0,0,0,0.023499
2020/04/06 04:35:00.007,n,301,2.52,1.08,3.96,17.9,78.7,1016.42,0,0,0,0,0.027008
2020/04/06 04:36:00.004,n,224,1.8,1.08,2.16,17.9,78.8,1016.42,0,0,0,0,0.024376
2020/04/06 04:37:00.001,n,177,2.88,1.44,4.32,17.9,78.2,1016.42,0,0,0,0,0.022659
2020/04/06 04:38:00.000,n,237,2.16,0.72,3.6,17.9,78.6,1016.52,0,0,0,0,0.022659
2020/04/06 04:39:00.012,n,279,1.08,0,1.8,17.9,78.5,1016.52,0,0,0,0,0.027008
2020/04/06 04:40:00.000,n,96,1.08,0.72,1.8,17.9,78.2,1016.52,0,0,0,0,0.027008
2020/04/06 04:41:00.000,n,46,1.44,0.36,2.16,17.9,78.7,1016.52,0,0,0,0,0.024376
2020/04/06 04:42:00.004,n,267,4.68,3.6,5.4,17.9,79,1016.52,0,0,0,0,0.027008
2020/04/06 04:43:00.001,n,270,1.8,1.08,1.8,17.9,78.4,1016.52,0,0,0,0,0.026131
2020/04/06 04:44:00.000,n,214,1.8,1.44,2.16,17.9,78.5,1016.52,0,0,0,0,0.023499
2020/04/06 04:45:00.000,n,304,2.88,2.16,3.96,17.9,78.6,1016.62,0,0,0,0,0.026131
2020/04/06 04:46:00.009,n,159,1.8,1.44,2.88,17.9,78.4,1016.62,0,0,0,0,0.022659
2020/04/06 04:47:00.006,n,268,3.24,2.88,3.96,17.8,78.2,1016.62,0,0,0,0,0.024376
2020/04/06 04:48:00.003,n,268,2.88,2.52,3.24,17.8,78.3,1016.62,0,0,0,0,0.01915
2020/04/06 04:49:00.000,n,222,2.88,2.52,3.6,17.8,78.6,1016.62,0,0,0,0,0.026093
2020/04/06 04:50:00.000,n,237,0.72,0.36,2.52,17.8,78.3,1016.62,0,0,0,0,0.031357
2020/04/06 04:51:00.000,n,230,2.88,2.52,3.24,17.8,78.4,1016.62,0,0,0,0,0.033073
2020/04/06 04:52:00.007,n,203,2.16,1.08,2.52,17.7,78.3,1016.62,0,0,0,0,0.033073
2020/04/06 04:53:00.004,n,169,2.16,1.8,2.52,17.7,78.4,1016.72,0,0,0,0,0.032196
2020/04/06 04:54:00.002,n,256,2.16,2.16,2.52,17.7,78.5,1016.72,0,0,0,0,0.029602
2020/04/06 04:55:00.000,n,336,1.8,1.08,2.16,17.7,79.3,1016.72,0,0,0,0,0.026093